METEOR 2-11 DEB, 40709

Orbit data source: Space-Track

METEOR 2-11 DEB, 40709 is space debris in LEO originally from a launch on Thu, 05 Jul 1984 UTC launched from the Plesetsk Missile And Space Complex (PKMTR). Debris objects in space refer to the collection of defunct objects orbiting the Earth. Examples of debris include non-operational satellites, rocket bodies, and fragments generated from explosions, collisions, or faulty payload assembly.

Loading next visibility...
Identifier
40709, 1984-072L
Orbit
LEO
Country
Flag of CISCIS
Related business
Manufacturer
Unknown
Mission
Spacecraft
Bus & Motor
Unknown
Mass
Unknown
Launch date (UTC)
1984-07-05 (42 years ago)
Launch vehicle
Unknown
Launch site
Plesetsk Missile And Space Complex (PKMTR)
Object type
Payload
Rocket body
Debris
Shape & HBR
Unknown shape, 0.1 m
Radar Cross Section
Small (<0.1 m²)

Expand to show TLE details & history
Last TLE update: 1 year ago

TLE from 1 year ago
0 METEOR 2-11 DEB
1 40709U 84072L   25001.48204260  .00007336  00000-0  51786-2 0  9993
2 40709  82.5127  73.9505 0008602 342.6776  17.4097 13.97756433769498
Epoch: 2025-01-01T11:34Z
TLE epoch observation values (Epoch: 2025-01-01T11:34:08.480Z)
Latitude
-0.00002°
Longitude
159.04047°
Altitude
898.519 km
Speed
7.406 km/s
True Right ascension
04h 55m 48s
True Declination
0° 00' 00"
Sunlit
Object was in full shadow at epoch
Visualization orbit readout
Latitude
Unknown
Longitude
Unknown
Altitude
Unknown
Speed
Unknown
Apparent Right ascension
Unknown
Apparent Declination
Unknown
Sunlit
N/A
Visualization observer readout
Local Sidereal Time
00:46:07
Azimuth
Unknown
Elevation
Unknown
Doppler factor
Unknown
Orbital elements
Apogee altitude
904.969 km
Perigee altitude
892.45 km
Semi-major axis
7,276.846 km
Eccentricity
0.00086
Inclination
82.5127°
RAAN
73.9505°
Arg. of periapsis
342.6776°
True anomaly
17.43922°
Mean anomaly
17.4097°
Eccentric anomaly
17.42446°
Mean motion
3.49646 °/min
Orbital period
102.96 mins
BSTAR
0.0051786
Loading maneuver chart data...
Computing Atmospheric mass density...
Loading historical data...
Loading historical data...
Loading historical data...
Loading historical data...
Loading historical data...
Loading historical data...
Loading historical data...

Documentation

Showing up to 5 results
|